Regional Weather Roundup
Issued by NWS

Home | Current Version | Previous Version | Text Only | Print | Product List | Glossary Off
Versions: 1 2 3 4 5 6 7 8 9 10 11 12 13 14 15 16 17 18 19 20 21 22 23 24 25 26 27 28 29 30 31 32 33 34 35 36 37 38 39 40 41 42 43 44 45 46 47 48 49 50

000
ASUS45 KBOI 270910
RWRID
WEATHER ROUNDUP FOR IDAHO
NATIONAL WEATHER SERVICE BOISE ID
300 AM MDT MON APR 27 2015

NOTE: "FAIR" INDICATES FEW OR NO CLOUDS BELOW 12000 FEET
WITH NO SIGNIFICANT WEATHER AND/OR OBSTRUCTIONS TO VISIBILITY

IDZ012-014-271000-
SOUTHWEST IDAHO


CITY           SKY/WX    TMP DP  RH WIND       PRES   REMARKS
BOISE          CLEAR     42  26  53 VRB3      30.24R
CALDWELL       CLEAR     36  21  55 W10       30.27S WCI  28
MOUNTAIN HOME  CLEAR     38  22  53 NW10      30.22S WCI  31
$$

IDZ016-017-271000-
SOUTHCENTRAL IDAHO


CITY           SKY/WX    TMP DP  RH WIND       PRES   REMARKS
BURLEY         CLEAR     38  20  48 W6        30.21S WCI  33
JEROME         CLEAR     34  20  56 SE6       30.21R WCI  29
TWIN FALLS     CLEAR     38  19  46 S16       30.20S WCI  29
$$

IDZ019>023-271000-
SOUTHEAST IDAHO


CITY           SKY/WX    TMP DP  RH WIND       PRES   REMARKS
IDAHO FALLS    CLEAR     34  29  82 N8        30.22R WCI  27
POCATELLO      CLOUDY    41  31  67 SW7       30.23S
REXBURG        PTCLDY    35  32  88 N3        30.21S
$$

IDZ006-010-011-018-031-032-271000-
CENTRAL IDAHO MOUNTAINS


CITY           SKY/WX    TMP DP  RH WIND       PRES   REMARKS
MCCALL         CLEAR     28  22  78 CALM      30.26S
HAILEY         CLEAR     36  27  69 NW7       30.25R WCI  30
STANLEY          N/A     21  16  81 SE3       30.27F
SALMON         CLOUDY    39  34  81 CALM      30.28S
CHALLIS        CLEAR     33  26  75 SE5       30.27R WCI  29
$$

IDZ002-004-006-007-026-271000-
NORTHERN IDAHO


CITY           SKY/WX    TMP DP  RH WIND       PRES   REMARKS
LEWISTON       PTCLDY    41  27  57 SE5       30.30R
LOWELL           N/A     37  34  89 N3        30.38R
COEUR D`ALENE  CLEAR     36  32  87 E5        30.30S WCI  32
MULLAN PASS    CLEAR     31  21  66 NW5       30.26R WCI  26
$$



USA.gov is the U.S. government's official web portal to all federal, state and local government web resources and services.